GFSFLT2_prec_cthk_021.txt.gz
RH
88 87 82 76 52 24 23 18 11 15 21 25 30 29 29 30 32 35 37 39 43 45 45 44 42 39 36 35 37 38 40 44
82 84 71 43 28 24 20 14 14 22 26 31 33 31 32 36 39 41 43 44 49 50 49 47 47 47 42 37 36 41 40 45
86 68 43 40 30 21 16 15 23 29 31 35 36 44 45 46 44 46 47 47 48 48 51 51 54 52 48 45 41 39 40 43
46 45 35 30 33 20 28 26 34 43 44 42 49 49 57 59 53 52 51 53 55 57 59 60 58 56 52 48 46 39 42 42
28 25 30 32 36 38 38 40 45 47 49 52 58 58 65 63 71 71 74 72 74 71 69 67 60 55 51 49 44 43 40 39
25 26 31 39 39 46 44 54 54 59 58 57 64 68 83 74 83 84 81 84 79 78 77 68 62 56 52 48 44 41 38 36
28 31 32 36 45 48 55 55 57 63 67 72 75 81 77 74 85 85 84 86 84 82 77 69 60 54 51 48 44 39 38 35
37 40 38 42 54 61 66 71 72 75 82 84 84 91 83 84 83 86 86 88 84 79 68 57 53 53 49 45 43 41 39 39
42 47 54 63 67 72 74 77 75 77 79 83 83 89 88 83 84 84 86 78 65 60 57 55 55 52 49 45 40 39 40 39
63 66 70 71 74 78 83 84 74 75 78 72 73 75 79 80 77 71 63 57 56 55 53 50 47 47 45 41 37 36 37 38
71 73 75 72 76 84 90 77 72 70 69 68 71 68 65 61 56 53 50 51 51 51 51 51 50 44 40 41 38 32 37 32
72 73 74 75 83 81 77 72 68 70 68 64 59 53 48 48 49 49 52 55 57 56 54 50 47 42 42 40 33 37 33 34
71 70 74 85 87 79 73 64 64 63 55 52 49 47 50 53 57 59 61 62 61 58 55 50 41 35 38 42 40 33 34 37
71 76 79 83 79 70 64 63 60 57 49 47 51 55 58 64 67 69 66 62 58 52 48 43 39 36 40 41 35 29 30 37
77 77 71 71 68 63 61 54 50 53 55 57 59 65 67 67 65 62 58 52 51 45 43 43 36 33 33 39 38 36 36 36
63 60 60 57 57 55 53 57 62 60 62 64 66 65 64 61 56 54 52 45 45 44 42 40 35 37 42 41 42 44 45 39
60 55 51 48 50 50 53 55 61 64 66 66 65 63 57 54 51 52 52 47 45 44 42 41 42 45 44 42 41 46 45 42
52 50 50 49 49 51 55 58 62 62 68 71 68 58 51 48 46 40 37 44 45 45 48 42 42 49 44 40 45 43 41 43
53 51 52 50 53 54 56 58 64 71 88 72 63 50 48 45 38 37 36 42 43 44 43 40 56 55 48 44 46 48 51 51
53 54 52 52 56 55 56 70 78 83 71 60 44 45 41 35 36 39 41 45 47 45 51 58 60 60 49 57 51 53 59 62

GFSFLT2_prec_cthk_024.txt.gz
RH
94 97 92 87 75 53 30 19 12 11 18 23 28 29 28 29 32 34 38 39 40 44 46 48 49 49 47 44 39 33 35 43
95 88 84 73 56 33 25 16 10 15 22 28 29 30 31 35 38 40 42 45 48 47 48 50 52 53 50 47 46 39 37 38
95 90 74 57 36 27 18 10 12 22 27 33 38 38 42 47 45 45 49 51 51 54 56 59 60 58 55 50 47 44 40 37
85 72 56 48 31 20 13 12 25 30 33 40 45 49 52 53 52 55 60 67 68 69 68 68 66 63 56 52 48 45 42 39
45 45 34 42 27 18 20 28 39 42 41 48 54 50 59 65 66 71 73 77 76 72 75 74 73 63 57 51 47 45 43 40
28 28 34 35 26 33 37 45 53 56 54 59 62 60 66 75 71 75 76 81 83 75 77 75 68 61 55 52 49 46 43 41
22 29 38 33 37 44 52 56 60 68 72 66 70 72 79 73 67 69 69 70 70 75 74 69 62 56 54 51 46 45 44 42
22 29 28 36 43 51 56 63 69 72 74 78 77 74 64 67 67 74 69 69 71 67 61 53 49 48 47 44 43 42 41 41
36 41 43 58 60 67 69 72 73 68 66 71 73 68 65 66 69 68 64 60 55 50 46 44 42 42 42 42 40 39 37 34
49 52 58 63 67 72 77 81 71 59 57 58 67 66 62 65 63 55 48 42 42 43 46 47 46 45 43 38 38 37 35 30
60 68 70 71 74 74 86 80 67 59 57 61 62 57 51 48 45 41 41 45 50 52 51 51 49 47 41 37 36 35 34 33
64 67 71 72 75 80 86 76 67 58 60 59 49 43 42 42 45 48 52 54 55 55 54 54 52 47 39 35 36 38 32 31
65 65 70 75 74 80 77 69 60 60 54 45 45 45 45 49 53 55 57 58 58 55 52 45 40 36 35 35 34 32 31 33
64 72 72 73 75 75 66 63 58 48 44 44 46 48 49 54 58 59 57 54 49 46 41 36 38 39 37 32 33 34 31 32
68 70 69 66 60 60 60 56 49 44 46 48 54 57 59 63 63 63 58 49 45 38 35 39 42 38 35 37 36 36 37 35
65 65 62 63 57 56 53 47 49 52 55 55 59 63 70 70 68 59 47 42 40 35 38 40 40 37 35 34 37 37 37 33
63 60 58 56 55 48 48 49 54 56 58 61 64 70 70 63 52 40 34 31 31 35 39 42 40 38 36 33 36 36 34 33
55 55 53 51 50 49 48 49 51 52 57 63 69 73 61 49 39 33 30 32 33 39 44 42 40 39 37 47 46 43 39 41
52 50 51 49 48 48 48 51 52 55 61 66 67 59 51 46 40 33 33 34 39 43 41 41 42 43 53 55 53 53 52 54
49 51 50 48 47 47 49 53 61 62 62 59 58 60 53 47 37 35 35 41 44 47 42 39 49 52 58 62 65 62 63 72

GFSFLT2_prec_cthk_027.txt.gz
RH
93 95 89 80 77 65 44 32 25 16 17 20 25 27 26 25 29 33 35 36 37 43 45 47 51 50 48 45 44 44 38 37
91 89 88 79 71 50 32 26 18 17 21 25 27 26 26 28 33 36 40 42 46 54 56 58 60 54 52 49 49 47 42 39
90 93 89 78 56 43 30 17 14 18 24 25 28 31 31 36 38 41 45 49 54 61 63 64 64 65 59 52 49 47 43 40
85 86 70 55 43 27 16 12 15 23 29 32 34 33 37 44 55 59 61 64 64 66 68 68 69 65 63 54 47 45 45 40
78 69 46 37 24 16 16 20 29 36 40 44 47 48 49 57 59 66 65 65 70 73 72 70 68 63 56 51 49 47 44 40
58 45 36 30 21 21 25 33 39 44 52 54 54 55 57 60 64 70 67 66 73 72 66 68 63 52 50 46 43 43 46 41
38 35 34 29 28 34 41 45 53 56 53 56 54 59 66 69 68 67 58 62 64 64 63 59 52 45 41 41 39 39 39 36
31 31 35 36 41 47 51 55 59 66 61 57 62 62 64 64 58 57 61 61 60 61 53 43 39 40 43 42 40 38 36 35
30 37 43 45 50 55 59 60 69 60 57 56 59 59 56 57 57 58 59 55 49 40 36 39 41 42 42 40 37 36 37 36
35 42 48 55 61 59 60 64 68 59 55 50 46 53 55 56 57 55 44 35 35 39 42 43 44 44 43 40 35 34 35 34
48 47 54 63 67 67 68 68 73 64 50 47 48 51 54 51 44 39 37 42 44 47 49 50 47 44 40 32 29 31 31 31
61 56 61 68 70 70 68 67 68 59 53 48 51 48 45 41 40 41 49 53 56 56 54 47 39 33 29 28 30 33 32 29
52 61 66 64 65 63 66 65 62 55 50 49 46 44 42 43 45 51 58 60 61 56 45 35 32 29 29 30 29 25 27 28
61 67 68 62 60 63 63 57 54 50 46 42 40 42 48 52 56 59 62 57 49 40 33 31 31 32 33 32 29 27 27 27
62 69 65 60 63 64 57 54 50 44 42 41 44 48 53 60 62 61 58 51 45 38 34 32 33 34 38 36 34 33 28 28
68 65 58 60 59 59 54 52 48 46 43 46 50 54 57 60 63 59 52 42 40 37 35 34 36 41 40 37 34 31 31 33
55 56 59 57 55 56 57 57 51 48 49 51 53 54 56 57 60 56 52 47 38 33 34 38 42 43 40 37 41 43 45 44
55 55 54 54 55 55 53 51 47 48 52 57 62 65 62 53 52 44 42 39 35 35 39 43 46 46 46 49 51 50 52 50
56 53 53 55 54 52 51 50 51 56 61 63 65 68 62 50 43 47 51 39 36 41 45 45 46 47 49 52 53 57 60 64
53 50 51 53 52 54 56 57 56 59 61 67 66 67 54 46 48 60 52 38 41 46 46 48 48 47 55 55 57 63 65 69

GFSFLT2_prec_cthk_033.txt.gz
RH
97 98 96 80 65 61 57 56 50 41 34 27 28 29 28 28 28 30 35 37 37 41 44 49 51 55 52 48 43 42 38 35
99 98 91 79 73 70 65 47 31 27 21 22 26 27 28 30 33 35 37 40 44 51 55 56 59 59 58 52 42 37 35 34
97 95 87 83 76 62 48 34 27 29 25 29 35 35 36 34 32 35 40 49 55 55 58 62 64 64 59 49 42 36 32 30
94 93 89 81 67 58 45 37 34 31 31 33 34 33 32 35 38 45 48 53 54 57 55 55 56 56 50 38 34 30 29 29
82 83 83 70 54 41 30 22 22 30 40 46 46 48 50 54 56 52 58 59 56 53 51 53 50 46 39 33 32 31 31 31
71 66 54 47 45 35 29 30 36 44 47 48 47 46 49 54 57 64 64 56 52 49 49 50 46 42 38 37 34 33 32 30
57 51 44 35 32 33 33 41 47 50 54 53 49 46 47 53 62 61 56 49 53 52 51 47 44 41 39 38 38 36 32 28
53 50 44 43 41 41 39 46 49 56 55 55 51 48 50 56 58 57 53 51 55 55 49 41 38 38 40 40 38 31 27 28
37 36 39 40 41 44 47 54 56 60 62 62 55 50 50 48 50 52 52 55 59 50 35 35 41 44 43 41 34 28 26 25
43 44 45 48 54 55 58 63 70 71 74 67 57 53 48 46 47 50 51 56 46 35 35 42 45 46 42 38 36 31 28 28
49 47 49 53 59 59 62 67 71 71 67 55 53 45 44 44 46 49 52 41 37 37 42 45 47 43 38 39 35 35 34 32
47 51 59 63 62 58 61 62 62 60 51 50 48 41 42 44 46 44 40 38 39 45 47 45 44 40 42 42 40 35 34 34
42 52 61 63 61 59 64 61 60 56 52 49 45 42 40 40 39 40 40 40 45 49 50 47 46 49 52 41 41 39 40 40
46 53 56 61 59 59 62 60 59 58 55 51 44 40 37 38 41 44 45 49 54 54 49 45 46 45 45 50 51 47 46 46
51 59 67 66 59 63 63 64 65 59 55 52 45 42 41 44 47 48 51 52 57 56 53 45 45 50 50 51 52 49 51 54
60 68 71 67 61 65 66 69 69 59 56 55 50 49 50 52 54 55 58 60 67 64 60 50 48 48 49 51 55 59 60 56
59 72 79 71 63 65 71 66 62 61 57 53 53 56 56 61 62 64 64 76 73 58 56 48 49 56 58 59 62 61 59 60
66 73 69 72 64 65 64 63 63 61 57 56 63 65 67 69 65 69 74 85 78 59 70 60 53 57 57 61 62 62 63 65
74 74 70 63 58 56 55 58 63 69 67 73 76 71 74 78 68 75 85 82 66 60 52 55 58 59 61 61 65 64 63 64
79 67 62 56 55 52 52 58 69 74 75 80 74 77 77 72 80 94 87 65 65 64 63 55 57 54 59 64 65 63 61 62

GFSFLT2_prec_cthk_039.txt.gz
RH
92 96 97 82 71 64 62 59 44 45 44 48 48 42 44 39 40 41 40 39 42 45 47 50 49 54 54 52 43 35 27 25
94 97 96 87 74 70 62 48 46 48 54 57 51 43 42 40 40 40 37 42 47 50 53 55 55 52 47 42 34 26 24 24
93 97 93 84 68 60 51 48 56 61 58 48 43 38 37 37 38 40 42 47 54 57 55 55 50 43 41 34 28 25 26 27
94 94 94 83 72 59 58 66 69 54 43 40 37 39 41 39 42 44 50 59 58 54 51 45 40 38 34 30 29 29 31 31
90 89 91 78 74 77 77 69 50 36 39 42 43 44 44 42 43 49 60 65 61 58 51 44 40 35 32 31 31 31 34 33
89 89 90 90 86 81 61 50 34 35 37 43 49 49 50 53 54 59 66 69 68 59 51 46 42 36 34 32 33 34 35 32
90 90 86 83 71 51 36 30 33 42 46 51 51 51 50 53 51 55 66 66 60 55 52 49 40 36 34 35 35 35 31 27
71 77 71 61 55 49 42 41 47 52 58 54 53 52 49 48 50 52 55 54 54 50 53 45 36 35 36 37 36 32 30 30
53 52 50 51 44 41 40 45 49 53 56 55 57 55 52 55 57 55 51 51 52 52 49 36 35 38 40 37 34 33 32 31
53 55 51 48 46 47 46 48 52 57 61 64 64 66 60 57 52 51 50 51 52 52 36 36 38 40 38 37 35 31 28 29
55 57 58 58 56 51 48 50 55 60 63 65 72 75 62 55 50 49 49 51 53 40 35 39 42 42 42 40 35 33 35 37
57 54 56 58 53 47 47 48 55 57 62 68 67 62 54 50 51 50 50 51 44 37 38 42 44 43 40 39 44 43 41 44
58 61 57 60 56 51 55 54 55 63 70 68 58 54 52 52 49 49 50 47 40 42 44 46 48 49 51 55 54 54 45 46
53 59 62 66 63 60 58 59 61 68 66 65 61 58 55 54 50 49 50 46 49 52 55 56 53 59 63 65 63 61 50 52
46 52 56 62 65 63 59 61 64 66 68 69 70 68 58 56 55 54 52 57 57 58 62 66 69 70 70 69 64 56 53 56
42 47 53 61 67 69 62 59 62 67 72 78 78 71 70 68 66 64 65 65 63 64 72 79 85 90 82 74 62 58 57 58
49 53 60 65 68 71 73 69 70 77 78 76 74 74 74 73 73 72 71 71 71 77 84 92 95 93 71 61 56 57 57 57
54 58 70 76 84 82 77 71 63 63 67 72 75 78 81 79 81 79 81 83 81 86 90 95 83 72 62 58 62 62 59 59
62 63 65 80 80 86 82 79 75 67 66 72 82 79 85 88 88 86 88 87 85 80 86 77 69 61 61 64 62 57 58 59
64 67 68 72 87 80 79 70 71 70 66 69 79 80 86 90 90 87 89 85 79 90 73 74 67 67 69 66 65 65 61 56